Regional Weather Roundup
Issued by NWS

Current Version | Previous Version | Text Only | Print | Product List | Glossary On
Versions: 1 2 3 4 5 6 7 8 9 10 11 12 13 14 15 16 17 18 19 20 21 22 23 24 25 26 27 28 29 30 31 32 33 34 35 36 37 38 39 40 41 42 43 44 45 46 47 48 49 50
000
ASUS43 KDTX 191401
RWRMI
MICHIGAN HOURLY REGIONAL WEATHER ROUNDUP
NATIONAL WEATHER SERVICE DETROIT/PONTIAC MI
1000 AM EDT THU APR 19 2018

NOTE: "FAIR" INDICATES FEW OR NO CLOUDS BELOW 12,000 FEET WITH NO
SIGNIFICANT WEATHER AND/OR OBSTRUCTION TO VISIBILITY.

MIZ047>049-052>055-059>063-066>070-074>076-081>083-191500-
SOUTHEAST LOWER MICHIGAN

CITY           SKY/WX    TMP DP  RH WIND       PRES   REMARKS
ADRIAN         FAIR      39  27  62 N13       30.11R WCI  31
ALMA           FAIR      37  26  63 NW12G17   30.14R WCI  30
ANN ARBOR      FAIR      40  25  55 NW16      30.08R WCI  31
BAD AXE        CLOUDY    36  23  58 N22G28    30.07R WCI  25
CARO           FAIR      37  25  63 N13G18    30.09R WCI  28
DETROIT CITY   MOSUNNY   36  25  64 NW14      30.06R WCI  27
DETROIT        FAIR      41  23  48 N13       30.07R
FLINT          FAIR      36  24  62 N13       30.10R WCI  27
GROSSE ILE     FAIR      40  24  53 N12G22    30.06R WCI  33
HILLSDALE      FAIR      36  30  80 NW15G22   30.10R WCI  26
HOWELL         FAIR      37  24  60 N14G20    30.09R WCI  28

CITY           SKY/WX    TMP DP  RH WIND       PRES   REMARKS
JACKSON        FAIR      38  24  57 NW13G22   30.11R WCI  30
LAMBERTVILLE   FAIR      40  28  60 N10G16    30.09R WCI  34
LANSING        FAIR      37  26  64 NW12      30.13R WCI  29
LAPEER         FAIR      36  23  58 N12G22    30.08R WCI  28
MASON          FAIR      39  24  53 N12G20    30.12R WCI  32
MONROE         FAIR      39  25  57 N9        30.07R WCI  33
MT. CLEMENS    PTSUNNY   38  29  69 N15G23    30.04R WCI  29
PONTIAC        FAIR      37  24  59 N16G23    30.06R WCI  28
PORT HOPE        N/A     34  24  67 N13G22    30.05R WCI  25
PORT HURON     CLOUDY    36  23  60 NW13G21   30.05R WCI  27
TRI CITIES     FAIR      38  23  55 N7        30.11R WCI  33
MIDLAND        NOT AVBL
TROY           FAIR      38  23  53 NW14G21   30.08R WCI  30
SAGINAW HB     FAIR      37  27  65 NW13      30.10R WCI  29
$$
MIZ043>046-050>051-056>058-064>065-071>073-077>080-191500-
SOUTHWEST LOWER MICHIGAN

CITY           SKY/WX    TMP DP  RH WIND       PRES   REMARKS
BATTLE CREEK   FAIR      40  27  59 NW14      30.15R WCI  32
BENTON HARBOR  FAIR      40  30  67 N10G20    30.22R WCI  33
BIG RAPIDS     FAIR      37  20  50 N7        30.15R WCI  31
COLDWATER      FAIR      39  31  75 NW12      30.14R WCI  31
HOLLAND        FAIR      40  26  57 N8        30.20R WCI  34
GRAND RAPIDS   FAIR      37  27  67 NW10      30.17R WCI  30
IONIA          FAIR      36  26  68 NW10      30.14R WCI  28
KALAMAZOO      FAIR      40  29  64 N14       30.17R WCI  32
LUDINGTON      FAIR      37  26  64 N15G22    30.22R WCI  28
MARSHALL       FAIR      38  26  60 NW7G16    30.14R WCI  33
MOUNT PLEASANT FAIR      38  24  56 NW8G16    30.12R WCI  33
MUSKEGON       FAIR      36  25  64 N12       30.20R WCI  28
SOUTH HAVEN    FAIR      40  30  67 NW15G21   30.21R WCI  31
$$
MIZ016>042-191500-
NORTHERN LOWER MICHIGAN

CITY           SKY/WX    TMP DP  RH WIND       PRES   REMARKS
ALPENA         FAIR      32  20  61 NW23      30.11R WCI  19
BEAVER ISLAND  FAIR      34  25  69 NW12G23   30.22R WCI  25
BELLAIRE       FAIR      35  24  64 NW13G21   30.20R WCI  26
CADILLAC       FAIR      34  20  57 NW14G21   30.14R WCI  24
CHARLEVOIX     PTSUNNY   33  26  76 NW14G23   30.23R WCI  24
FRANKFORT      FAIR      37  26  66 N12G18    30.23R WCI  29
GAYLORD        FAIR      31  20  63 NW10G18   30.12R WCI  22
GRAYLING       FAIR      33  22  64 NW13G22   30.12R WCI  23
HARBOR SPRINGS FAIR      33  22  64 N10G18    30.18R WCI  25
HOUGHTON LAKE  FAIR      34  21  59 NW15      30.12R WCI  24
MANISTEE       FAIR      37  27  67 N13       30.22R WCI  29
OSCODA         FAIR      34  20  56 NW18      30.07R WCI  23
PELLSTON       FAIR      33  22  63 NW17      30.18R WCI  22
ROGERS CITY    FAIR      31  20  64 NW14G21   30.15R WCI  21
TRAVERSE CITY  FAIR      36  26  67 N14G21    30.20R WCI  27
$$
MIZ007>008-015-191500-
EASTERN UPPER MICHIGAN

CITY           SKY/WX    TMP DP  RH WIND       PRES   REMARKS
KINROSS        FAIR      29  19  66 N16G29    30.17R WCI  17
MACKINAC ISLAN FAIR      34  20  58 N15G23    30.17R WCI  24
NEWBERRY       FAIR      32  22  67 N13G22    30.21R WCI  22
S. S. MARIE    FAIR      33  20  58 NW15      30.17R WCI  23
MUNISING         N/A     33  27  78 NW15      30.30R WCI  23
$$
MIZ004>006-011>014-085-191500-
CENTRAL UPPER MICHIGAN

CITY           SKY/WX    TMP DP  RH WIND       PRES   REMARKS
MANISTIQUE     FAIR      34  25  69 N20G28    30.23R WCI  22
ESCANABA       FAIR      39  20  46 N16G26    30.26R WCI  30
MENOMINEE      FAIR      38  20  48 N12G21    30.28R WCI  30
SAWYER-GWINN   SUNNY     32  21  64 N17G23    30.28R WCI  21
$$
MIZ001>003-009>011-084-191500-
WESTERN UPPER MICHIGAN

CITY           SKY/WX    TMP DP  RH WIND       PRES   REMARKS
IRON MOUNTAIN  FAIR      37  20  50 N13       30.27R WCI  29
HOUGHTON       FAIR      35  20  54 N13       30.31R WCI  26
COPPER HARBOR    N/A     34  25  69 N12       30.33R WCI  25
IRONWOOD       FAIR      33  20  58 CALM      30.37R
$$

ABBREVIATIONS USED IN REMARKS
   TC - TEMPERATURE IN CELSIUS
  WCI - WIND CHILL INDEX
   HX - HEAT INDEX
  VSB - VISIBILITY





USA.gov is the U.S. government's official web portal to all federal, state and local government web resources and services.